Regional Weather Roundup
Issued by NWS

Home | Current Version | Previous Version | Graphics & Text | Print | Product List | Glossary On
Versions: 1 2 3 4 5 6 7 8 9 10 11 12 13 14 15 16 17 18 19 20 21 22 23 24 25 26 27 28 29 30 31 32 33 34 35 36 37 38 39 40 41 42 43 44 45 46 47 48 49 50
000
ASUS43 KOAX 301302
RWRNE

WEATHER ROUNDUP FOR NEBRASKA
NATIONAL WEATHER SERVICE OMAHA NE
800 AM CDT TUE SEP 30 2014

NOTES: SATELLITE DATA IS BEING USED TO AUGMENT CLOUD COVER ABOVE
       12000 FEET.
       "FAIR" INDICATES FEW OR NO CLOUDS BELOW 12,000 FEET WITH NO
       SIGNIFICANT WEATHER AND/OR OBSTRUCTIONS TO VISIBILITY.

  * THESE STATIONS DO NOT REPORT WEATHER SUCH AS RAIN...SNOW OR FOG.

NEZ001>004-019>022-054>056-301400-
NEBRASKA PANHANDLE

CITY           SKY/WX    TMP DP  RH WIND       PRES   REMARKS
SCOTTSBLUFF    CLOUDY    55  45  68 W22G29    29.67F
ALLIANCE       CLOUDY    51  48  89 SW18G25   29.64S
CHADRON        CLOUDY    52  49  89 W30G40    29.50R
KIMBALL        CLOUDY    49  44  83 SW13      29.76S
SIDNEY         MOCLDY    50  45  83 SW20      29.77F
$$

NEZ057>060-069>072-079>082-301400-
SOUTHWEST NEBRASKA

CITY           SKY/WX    TMP DP  RH WIND       PRES   REMARKS
NORTH PLATTE   MOCLDY    53  47  79 SW7       29.77R
IMPERIAL       PTCLDY    49  46  90 SW9       29.81R
LEXINGTON      CLOUDY    55  51  87 S3        29.79S
MCCOOK         CLEAR     50  48  93 SW6       29.82S
OGALLALA       PTCLDY    49  47  93 W5        29.77F
$$

NEZ005>010-023>029-035>040-094-301400-
NORTH CENTRAL NEBRASKA

CITY           SKY/WX    TMP DP  RH WIND       PRES   REMARKS
VALENTINE      MOCLDY    55  48  77 S20G25    29.62F
AINSWORTH      MOCLDY    56  48  74 S15       29.68R
BROKEN BOW     CLOUDY    58  52  80 SW9       29.76R
O`NEILL        CLOUDY    64  62  96 SE15G24   29.73S
ORD            PTCLDY    63  58  83 S14G24    29.73S
$$

NEZ041-046>049-061>064-073>077-083>087-301400-
SOUTH CENTRAL NEBRASKA

CITY           SKY/WX    TMP DP  RH WIND       PRES   REMARKS
GRAND ISLAND   MOCLDY    65  58  78 S15       29.80S
AURORA         CLOUDY    64  59  85 S14       29.82R
HASTINGS       MOCLDY    66  55  67 S12G20    29.81S
HEBRON         LGT RAIN  64  59  83 S10       29.86R
HOLDREGE       PTCLDY    56  52  84 SW6       29.82R
KEARNEY *      PTCLDY    61  55  82 S12       29.81R
YORK           CLOUDY    64  61  88 S12       29.83S
$$

NEZ011>018-030>034-042>045-301400-
NORTHEAST NEBRASKA

CITY           SKY/WX    TMP DP  RH WIND       PRES   REMARKS
NORFOLK        LGT RAIN  62  60  93 SE10      29.81F
ALBION         DRIZZLE   63  60  92 SE13G20   29.78F
BLAIR          CLOUDY    64  59  85 SE7       29.88R
COLUMBUS *     CLOUDY    63  57  82 S8        29.84F
FREMONT        CLOUDY    65  58  77 E10       29.85F
TEKAMAH        CLOUDY    62  59  90 SE5       29.87S
WAYNE          CLOUDY    61  58  91 SE14      29.84F
$$

NEZ050>053-065>068-078-088>093-301400-
SOUTHEAST NEBRASKA

CITY           SKY/WX    TMP DP  RH WIND       PRES   REMARKS
LINCOLN        MOCLDY    66  59  78 S7        29.85S
OMAHA EPPLEY   CLOUDY    64  58  80 SE9       29.88S
BEATRICE       PTCLDY    66  58  76 S9        29.86R
FALLS CITY     PTCLDY    60  58  92 SE3       29.89S
NEBRASKA CITY  MOCLDY    62  58  86 SE7       29.89R
PLATTSMOUTH      N/A     62  57  83 E7        29.88S
$$

NEZ044-045-051>053-067-301400-
OMAHA AREA

CITY           SKY/WX    TMP DP  RH WIND       PRES   REMARKS
OMAHA EPPLEY   CLOUDY    64  58  80 SE9       29.88S
BLAIR          CLOUDY    64  59  85 SE7       29.88R
FREMONT        CLOUDY    65  58  77 E10       29.85F
MILLARD        CLOUDY    64  59  82 SE6       29.87R
OFFUTT AFB     CLOUDY    63  63  99 E7        29.87F
PLATTSMOUTH      N/A     62  57  83 E7        29.88S
WAHOO          CLOUDY    64  58  81 SE8       29.85S
$$


USA.gov is the U.S. government's official web portal to all federal, state and local government web resources and services.